Time,TemperatureF,DewpointF,PressureIn,WindDirection,WindDirectionDegrees,WindSpeedMPH,WindSpeedGustMPH,Humidity,HourlyPrecipIn,Conditions,Clouds,dailyrainin,SoftwareType,DateUTC
2013-10-08 00:01:00,75.0,72.5,29.56,SE,135,4.9,4.9,92,0.00,,---,0.45,VWS V14.01,2013-10-08 04:01:00,
2013-10-08 00:06:00,75.2,72.4,29.56,SE,135,4.9,4.9,91,0.00,,---,0.00,VWS V14.01,2013-10-08 04:06:00,
2013-10-08 00:11:00,75.2,72.4,29.56,SE,135,4.9,4.9,91,0.00,,---,0.00,VWS V14.01,2013-10-08 04:11:00,
2013-10-08 00:16:00,75.2,72.4,29.56,SE,135,4.9,4.9,91,0.00,,---,0.00,VWS V14.01,2013-10-08 04:16:00,
2013-10-08 00:21:00,75.4,72.6,29.56,SE,135,4.9,4.9,91,0.00,,---,0.00,VWS V14.01,2013-10-08 04:21:00,
2013-10-08 00:26:00,75.4,72.6,29.56,SE,135,4.9,4.9,91,0.00,,---,0.00,VWS V14.01,2013-10-08 04:26:00,
2013-10-08 00:31:00,75.6,72.8,29.56,SE,135,4.9,4.9,91,0.00,,---,0.00,VWS V14.01,2013-10-08 04:31:00,
2013-10-08 00:36:00,75.6,72.8,29.56,SE,135,4.9,4.9,91,0.00,,---,0.00,VWS V14.01,2013-10-08 04:36:00,
2013-10-08 00:41:00,75.7,72.6,29.56,SE,135,4.9,4.9,90,0.00,,---,0.00,VWS V14.01,2013-10-08 04:41:00,
2013-10-08 00:46:00,75.6,72.4,29.56,SE,135,4.9,4.9,90,0.00,,---,0.00,VWS V14.01,2013-10-08 04:46:00,
2013-10-08 00:51:00,75.7,72.6,29.56,SE,135,4.9,4.9,90,0.00,,---,0.00,VWS V14.01,2013-10-08 04:51:00,
2013-10-08 00:56:00,75.7,72.6,29.56,SE,135,4.9,4.9,90,0.00,,---,0.00,VWS V14.01,2013-10-08 04:56:00,
2013-10-08 01:01:00,75.7,72.6,29.56,SE,135,4.9,4.9,90,0.00,,---,0.00,VWS V14.01,2013-10-08 05:01:00,
2013-10-08 01:06:00,75.7,72.3,29.56,SE,135,4.9,4.9,89,0.00,,---,0.00,VWS V14.01,2013-10-08 05:06:00,
2013-10-08 01:11:00,75.7,72.3,29.56,SE,135,4.9,4.9,89,0.00,,---,0.00,VWS V14.01,2013-10-08 05:11:00,
2013-10-08 01:16:00,75.7,72.3,29.56,SE,135,4.9,4.9,89,0.00,,---,0.00,VWS V14.01,2013-10-08 05:16:00,
2013-10-08 01:21:00,75.7,72.3,29.56,SE,135,4.9,4.9,89,0.00,,---,0.00,VWS V14.01,2013-10-08 05:21:00,
2013-10-08 01:26:00,75.6,72.1,29.56,SE,135,4.9,4.9,89,0.00,,---,0.00,VWS V14.01,2013-10-08 05:26:00,
2013-10-08 01:31:00,75.6,72.1,29.56,SE,135,4.9,4.9,89,0.00,,---,0.00,VWS V14.01,2013-10-08 05:31:00,
2013-10-08 01:36:00,75.4,71.9,29.56,SE,135,4.9,4.9,89,0.00,,---,0.00,VWS V14.01,2013-10-08 05:36:00,
2013-10-08 01:41:00,75.4,71.9,29.56,SE,135,4.9,4.9,89,0.00,,---,0.00,VWS V14.01,2013-10-08 05:41:00,
2013-10-08 01:46:00,75.4,71.9,29.56,SE,135,4.9,4.9,89,0.00,,---,0.00,VWS V14.01,2013-10-08 05:46:00,
2013-10-08 01:51:00,75.4,72.2,29.53,SE,135,4.9,4.9,90,0.00,,---,0.00,VWS V14.01,2013-10-08 05:51:00,
2013-10-08 01:56:00,75.4,72.2,29.53,SE,135,4.9,4.9,90,0.00,,---,0.00,VWS V14.01,2013-10-08 05:56:00,
2013-10-08 02:01:00,75.4,72.2,29.53,SE,135,4.9,4.9,90,0.00,,---,0.00,VWS V14.01,2013-10-08 06:01:00,
2013-10-08 02:06:00,75.2,72.1,29.53,SE,135,4.9,4.9,90,0.00,,---,0.00,VWS V14.01,2013-10-08 06:06:00,
2013-10-08 02:11:00,75.2,72.1,29.53,SE,135,4.9,4.9,90,0.00,,---,0.00,VWS V14.01,2013-10-08 06:11:00,
2013-10-08 02:16:00,75.2,72.1,29.53,SE,135,4.9,4.9,90,0.00,,---,0.00,VWS V14.01,2013-10-08 06:16:00,
2013-10-08 02:21:00,75.2,72.1,29.53,SE,135,4.9,4.9,90,0.00,,---,0.00,VWS V14.01,2013-10-08 06:21:00,
2013-10-08 02:26:00,75.2,72.1,29.53,SE,135,4.9,4.9,90,0.00,,---,0.00,VWS V14.01,2013-10-08 06:26:00,
2013-10-08 02:31:00,75.4,72.2,29.53,SE,135,4.9,4.9,90,0.00,,---,0.00,VWS V14.01,2013-10-08 06:31:00,
2013-10-08 02:36:00,75.4,72.6,29.53,SE,135,4.9,4.9,91,0.00,,---,0.00,VWS V14.01,2013-10-08 06:36:00,
2013-10-08 02:41:00,75.4,72.6,29.53,SE,135,4.9,4.9,91,0.00,,---,0.00,VWS V14.01,2013-10-08 06:41:00,
2013-10-08 02:46:00,75.4,72.6,29.53,SE,135,4.9,4.9,91,0.00,,---,0.00,VWS V14.01,2013-10-08 06:46:00,
2013-10-08 02:51:00,75.6,72.8,29.53,SE,135,4.9,4.9,91,0.00,,---,0.00,VWS V14.01,2013-10-08 06:51:00,
2013-10-08 02:56:00,75.6,72.8,29.53,SE,135,4.9,4.9,91,0.00,,---,0.00,VWS V14.01,2013-10-08 06:56:00,
2013-10-08 03:01:00,75.6,72.8,29.53,SE,135,4.9,4.9,91,0.00,,---,0.00,VWS V14.01,2013-10-08 07:01:00,
2013-10-08 03:06:00,75.6,72.8,29.53,SE,135,4.9,4.9,91,0.00,,---,0.00,VWS V14.01,2013-10-08 07:06:00,
2013-10-08 03:12:00,75.6,72.8,29.53,SE,135,4.9,4.9,91,0.00,,---,0.00,VWS V14.01,2013-10-08 07:12:00,
2013-10-08 03:17:00,75.6,72.8,29.53,SE,135,4.9,4.9,91,0.00,,---,0.00,VWS V14.01,2013-10-08 07:17:00,
2013-10-08 03:22:00,75.6,72.8,29.56,SE,135,4.9,4.9,91,0.00,,---,0.00,VWS V14.01,2013-10-08 07:22:00,
2013-10-08 03:27:00,75.6,72.8,29.56,SE,135,4.9,4.9,91,0.00,,---,0.00,VWS V14.01,2013-10-08 07:27:00,
2013-10-08 03:32:00,75.6,72.8,29.56,SE,135,4.9,4.9,91,0.00,,---,0.00,VWS V14.01,2013-10-08 07:32:00,
2013-10-08 03:37:00,75.6,72.8,29.56,SE,135,4.9,4.9,91,0.00,,---,0.00,VWS V14.01,2013-10-08 07:37:00,
2013-10-08 03:42:00,75.6,72.8,29.56,SE,135,4.9,4.9,91,0.00,,---,0.00,VWS V14.01,2013-10-08 07:42:00,
2013-10-08 03:47:00,75.6,72.8,29.56,SE,135,4.9,4.9,91,0.00,,---,0.00,VWS V14.01,2013-10-08 07:47:00,
2013-10-08 03:52:00,75.6,72.8,29.56,SE,135,4.9,4.9,91,0.00,,---,0.00,VWS V14.01,2013-10-08 07:52:00,
2013-10-08 03:57:00,75.6,72.8,29.56,SE,135,4.9,4.9,91,0.00,,---,0.00,VWS V14.01,2013-10-08 07:57:00,
2013-10-08 04:02:00,75.6,72.8,29.56,SE,135,4.9,4.9,91,0.00,,---,0.00,VWS V14.01,2013-10-08 08:02:00,
2013-10-08 04:07:00,75.6,72.8,29.56,SE,135,4.9,4.9,91,0.00,,---,0.00,VWS V14.01,2013-10-08 08:07:00,
2013-10-08 04:12:00,75.4,72.6,29.56,SE,135,4.9,4.9,91,0.00,,---,0.00,VWS V14.01,2013-10-08 08:12:00,
2013-10-08 04:17:00,75.4,72.6,29.56,SE,135,4.9,4.9,91,0.05,,---,0.05,VWS V14.01,2013-10-08 08:17:00,
2013-10-08 04:22:00,75.4,72.6,29.56,SE,135,4.9,4.9,91,0.05,,---,0.05,VWS V14.01,2013-10-08 08:22:00,
2013-10-08 04:27:00,75.4,72.6,29.56,SE,135,4.9,4.9,91,0.05,,---,0.05,VWS V14.01,2013-10-08 08:27:00,
2013-10-08 04:32:00,75.4,72.9,29.56,SE,135,4.9,4.9,92,0.05,,---,0.05,VWS V14.01,2013-10-08 08:32:00,
2013-10-08 04:37:00,75.2,72.7,29.56,SE,135,4.9,4.9,92,0.05,,---,0.05,VWS V14.01,2013-10-08 08:37:00,
2013-10-08 04:42:00,75.0,72.2,29.56,SE,135,4.9,4.9,91,0.05,,---,0.05,VWS V14.01,2013-10-08 08:42:00,
2013-10-08 04:47:00,74.8,72.0,29.56,SE,135,4.9,4.9,91,0.05,,---,0.05,VWS V14.01,2013-10-08 08:47:00,
2013-10-08 04:52:00,74.7,71.9,29.56,SE,135,4.9,4.9,91,0.05,,---,0.05,VWS V14.01,2013-10-08 08:52:00,
2013-10-08 04:57:00,74.7,71.9,29.56,SE,135,4.9,4.9,91,0.05,,---,0.05,VWS V14.01,2013-10-08 08:57:00,
2013-10-08 05:02:00,74.7,71.9,29.56,SE,135,4.9,4.9,91,0.05,,---,0.05,VWS V14.01,2013-10-08 09:02:00,
2013-10-08 05:07:00,74.7,71.9,29.56,SE,135,4.9,4.9,91,0.05,,---,0.05,VWS V14.01,2013-10-08 09:07:00,
2013-10-08 05:12:00,74.5,71.7,29.56,SE,135,4.9,4.9,91,0.05,,---,0.05,VWS V14.01,2013-10-08 09:12:00,
2013-10-08 05:17:00,74.5,71.7,29.56,SE,135,4.9,4.9,91,0.05,,---,0.05,VWS V14.01,2013-10-08 09:17:00,
2013-10-08 05:22:00,74.5,71.7,29.56,SE,135,4.9,4.9,91,0.00,,---,0.05,VWS V14.01,2013-10-08 09:22:00,
2013-10-08 05:27:00,74.5,71.7,29.56,SE,135,4.9,4.9,91,0.00,,---,0.05,VWS V14.01,2013-10-08 09:27:00,
2013-10-08 05:32:00,74.5,71.7,29.56,SE,135,4.9,4.9,91,0.00,,---,0.05,VWS V14.01,2013-10-08 09:32:00,
2013-10-08 05:37:00,74.5,71.7,29.56,SE,135,4.9,4.9,91,0.00,,---,0.05,VWS V14.01,2013-10-08 09:37:00,
2013-10-08 05:42:00,74.5,71.7,29.56,SE,135,4.9,4.9,91,0.00,,---,0.05,VWS V14.01,2013-10-08 09:42:00,
2013-10-08 05:47:00,74.5,71.7,29.56,SE,135,4.9,4.9,91,0.00,,---,0.05,VWS V14.01,2013-10-08 09:47:00,
2013-10-08 05:52:00,74.5,71.7,29.56,SE,135,4.9,4.9,91,0.00,,---,0.05,VWS V14.01,2013-10-08 09:52:00,
2013-10-08 05:57:00,74.5,71.4,29.56,SE,135,4.9,4.9,90,0.00,,---,0.05,VWS V14.01,2013-10-08 09:57:00,
2013-10-08 06:02:00,74.5,71.4,29.56,SE,135,4.9,4.9,90,0.00,,---,0.05,VWS V14.01,2013-10-08 10:02:00,
2013-10-08 06:07:00,74.5,71.4,29.56,SE,135,4.9,4.9,90,0.00,,---,0.05,VWS V14.01,2013-10-08 10:07:00,
2013-10-08 06:12:00,74.5,71.4,29.56,SE,135,4.9,4.9,90,0.00,,---,0.05,VWS V14.01,2013-10-08 10:12:00,
2013-10-08 06:17:00,74.5,71.4,29.56,SE,135,4.9,4.9,90,0.00,,---,0.05,VWS V14.01,2013-10-08 10:17:00,
2013-10-08 06:22:00,74.5,71.4,29.56,SE,135,4.9,4.9,90,0.00,,---,0.05,VWS V14.01,2013-10-08 10:22:00,
2013-10-08 06:27:00,74.5,71.4,29.56,SE,135,4.9,4.9,90,0.00,,---,0.05,VWS V14.01,2013-10-08 10:27:00,
2013-10-08 06:32:00,74.5,71.4,29.56,SE,135,4.9,4.9,90,0.00,,---,0.05,VWS V14.01,2013-10-08 10:32:00,
2013-10-08 06:37:00,74.5,71.4,29.59,SE,135,4.9,4.9,90,0.00,,---,0.05,VWS V14.01,2013-10-08 10:37:00,
2013-10-08 06:42:00,74.5,71.4,29.59,SE,135,4.9,4.9,90,0.00,,---,0.05,VWS V14.01,2013-10-08 10:42:00,
2013-10-08 06:47:00,74.5,71.4,29.59,SE,135,4.9,4.9,90,0.00,,---,0.05,VWS V14.01,2013-10-08 10:47:00,
2013-10-08 06:52:00,74.5,71.4,29.59,SE,135,4.9,4.9,90,0.00,,---,0.05,VWS V14.01,2013-10-08 10:52:00,
2013-10-08 06:57:00,74.5,71.4,29.59,SE,135,4.9,4.9,90,0.00,,---,0.05,VWS V14.01,2013-10-08 10:57:00,
2013-10-08 07:02:00,74.3,70.8,29.59,SE,135,4.9,4.9,89,0.00,,---,0.05,VWS V14.01,2013-10-08 11:02:00,
2013-10-08 07:07:00,74.1,70.7,29.59,SE,135,4.9,4.9,89,0.00,,---,0.05,VWS V14.01,2013-10-08 11:07:00,
2013-10-08 07:12:00,73.9,70.5,29.59,SE,135,4.9,4.9,89,0.00,,---,0.05,VWS V14.01,2013-10-08 11:12:00,
2013-10-08 07:17:00,73.9,70.5,29.59,SE,135,4.9,4.9,89,0.00,,---,0.05,VWS V14.01,2013-10-08 11:17:00,
2013-10-08 07:23:00,73.8,70.3,29.59,SE,135,4.9,4.9,89,0.00,,---,0.05,VWS V14.01,2013-10-08 11:23:00,
2013-10-08 07:28:00,73.6,70.1,29.59,SE,135,4.9,4.9,89,0.00,,---,0.05,VWS V14.01,2013-10-08 11:28:00,
2013-10-08 07:33:00,73.4,70.0,29.59,SE,135,4.9,4.9,89,0.00,,---,0.05,VWS V14.01,2013-10-08 11:33:00,
2013-10-08 07:38:00,73.2,70.1,29.59,SE,135,4.9,4.9,90,0.00,,---,0.05,VWS V14.01,2013-10-08 11:38:00,
2013-10-08 07:43:00,73.2,70.1,29.59,SE,135,4.9,4.9,90,0.00,,---,0.05,VWS V14.01,2013-10-08 11:43:00,
2013-10-08 07:48:00,73.0,69.9,29.59,SE,135,4.9,4.9,90,0.00,,---,0.05,VWS V14.01,2013-10-08 11:48:00,
2013-10-08 07:53:00,73.2,70.4,29.59,SE,135,4.9,4.9,91,0.00,,---,0.05,VWS V14.01,2013-10-08 11:53:00,
2013-10-08 07:58:00,73.8,71.0,29.59,SE,135,4.9,4.9,91,0.00,,---,0.05,VWS V14.01,2013-10-08 11:58:00,
2013-10-08 08:03:00,74.1,71.3,29.59,SE,135,4.9,4.9,91,0.00,,---,0.05,VWS V14.01,2013-10-08 12:03:00,
2013-10-08 08:08:00,74.5,72.0,29.62,SE,135,4.9,4.9,92,0.00,,---,0.05,VWS V14.01,2013-10-08 12:08:00,
2013-10-08 08:13:00,74.8,72.4,29.62,SE,135,4.9,4.9,92,0.00,,---,0.05,VWS V14.01,2013-10-08 12:13:00,
2013-10-08 08:18:00,75.0,72.5,29.62,SE,135,4.9,4.9,92,0.00,,---,0.05,VWS V14.01,2013-10-08 12:18:00,
2013-10-08 08:23:00,75.2,72.7,29.62,SE,135,4.9,4.9,92,0.00,,---,0.05,VWS V14.01,2013-10-08 12:23:00,
2013-10-08 08:28:00,75.4,72.6,29.62,SE,135,4.9,4.9,91,0.00,,---,0.05,VWS V14.01,2013-10-08 12:28:00,
2013-10-08 08:33:00,75.7,72.9,29.62,SE,135,4.9,4.9,91,0.00,,---,0.05,VWS V14.01,2013-10-08 12:33:00,
2013-10-08 08:38:00,76.3,73.5,29.62,SE,135,4.9,4.9,91,0.00,,---,0.05,VWS V14.01,2013-10-08 12:38:00,
2013-10-08 08:43:00,76.8,74.0,29.62,SE,135,4.9,4.9,91,0.00,,---,0.05,VWS V14.01,2013-10-08 12:43:00,
2013-10-08 08:48:00,77.4,74.2,29.62,SE,135,4.9,4.9,90,0.00,,---,0.05,VWS V14.01,2013-10-08 12:48:00,
2013-10-08 08:53:00,77.5,74.1,29.62,SE,135,4.9,4.9,89,0.00,,---,0.05,VWS V14.01,2013-10-08 12:53:00,
2013-10-08 08:58:00,78.1,73.6,29.62,SE,135,4.9,4.9,86,0.00,,---,0.05,VWS V14.01,2013-10-08 12:58:00,
2013-10-08 09:03:00,78.4,73.6,29.62,SE,135,4.9,4.9,85,0.00,,---,0.05,VWS V14.01,2013-10-08 13:03:00,
2013-10-08 09:08:00,78.3,72.3,29.62,SE,135,4.9,4.9,82,0.00,,---,0.05,VWS V14.01,2013-10-08 13:08:00,
2013-10-08 09:13:00,79.0,72.7,29.62,SE,135,4.9,4.9,81,0.00,,---,0.05,VWS V14.01,2013-10-08 13:13:00,
2013-10-08 09:18:00,78.8,71.4,29.62,SE,135,4.9,4.9,78,0.00,,---,0.05,VWS V14.01,2013-10-08 13:18:00,
2013-10-08 09:23:00,79.0,71.2,29.62,SE,135,4.9,4.9,77,0.00,,---,0.05,VWS V14.01,2013-10-08 13:23:00,
2013-10-08 09:28:00,79.7,71.9,29.62,SE,135,4.9,4.9,77,0.00,,---,0.05,VWS V14.01,2013-10-08 13:28:00,
2013-10-08 09:33:00,79.5,70.5,29.62,SE,135,4.9,4.9,74,0.00,,---,0.05,VWS V14.01,2013-10-08 13:33:00,
2013-10-08 09:38:00,79.7,70.3,29.62,SE,135,4.9,4.9,73,0.00,,---,0.05,VWS V14.01,2013-10-08 13:38:00,
2013-10-08 09:43:00,80.2,70.8,29.62,SE,135,4.9,4.9,73,0.00,,---,0.05,VWS V14.01,2013-10-08 13:43:00,
2013-10-08 09:48:00,80.2,69.6,29.62,SE,135,4.9,4.9,70,0.00,,---,0.05,VWS V14.01,2013-10-08 13:48:00,
2013-10-08 09:53:00,81.0,70.7,29.65,SE,135,4.9,4.9,71,0.00,,---,0.05,VWS V14.01,2013-10-08 13:53:00,
2013-10-08 09:58:00,81.5,70.8,29.65,SE,135,4.9,4.9,70,0.00,,---,0.05,VWS V14.01,2013-10-08 13:58:00,
2013-10-08 10:03:00,81.1,69.2,29.65,SE,135,4.9,4.9,67,0.00,,---,0.05,VWS V14.01,2013-10-08 14:03:00,
2013-10-08 10:08:00,80.8,68.8,29.65,SE,135,4.9,4.9,67,0.00,,---,0.05,VWS V14.01,2013-10-08 14:08:00,
2013-10-08 10:13:00,80.4,68.5,29.65,SE,135,4.9,4.9,67,0.00,,---,0.05,VWS V14.01,2013-10-08 14:13:00,
2013-10-08 10:18:00,80.4,68.0,29.65,SE,135,4.9,4.9,66,0.00,,---,0.05,VWS V14.01,2013-10-08 14:18:00,
2013-10-08 10:23:00,81.0,69.0,29.65,SE,135,4.9,4.9,67,0.00,,---,0.05,VWS V14.01,2013-10-08 14:23:00,
2013-10-08 10:28:00,82.2,68.8,29.65,SE,135,4.9,4.9,64,0.00,,---,0.05,VWS V14.01,2013-10-08 14:28:00,
2013-10-08 10:33:00,81.7,68.3,29.65,SE,135,4.9,4.9,64,0.00,,---,0.05,VWS V14.01,2013-10-08 14:33:00,
2013-10-08 10:38:00,81.0,68.1,29.65,SE,135,4.9,4.9,65,0.00,,---,0.05,VWS V14.01,2013-10-08 14:38:00,
2013-10-08 10:43:00,81.0,68.1,29.65,SE,135,4.9,4.9,65,0.00,,---,0.05,VWS V14.01,2013-10-08 14:43:00,
2013-10-08 10:48:00,81.3,68.9,29.65,SE,135,4.9,4.9,66,0.00,,---,0.05,VWS V14.01,2013-10-08 14:48:00,
2013-10-08 10:53:00,81.0,68.5,29.65,SE,135,4.9,4.9,66,0.00,,---,0.05,VWS V14.01,2013-10-08 14:53:00,
2013-10-08 10:58:00,81.0,68.5,29.65,SE,135,4.9,4.9,66,0.00,,---,0.05,VWS V14.01,2013-10-08 14:58:00,
2013-10-08 11:03:00,81.0,68.5,29.65,SE,135,4.9,4.9,66,0.00,,---,0.05,VWS V14.01,2013-10-08 15:03:00,
2013-10-08 11:08:00,82.8,70.2,29.65,SE,135,4.9,4.9,66,0.00,,---,0.05,VWS V14.01,2013-10-08 15:08:00,
2013-10-08 11:13:00,82.8,68.4,29.65,SE,135,4.9,4.9,62,0.00,,---,0.05,VWS V14.01,2013-10-08 15:13:00,
2013-10-08 11:18:00,83.5,69.6,29.65,SE,135,4.9,4.9,63,0.00,,---,0.05,VWS V14.01,2013-10-08 15:18:00,
2013-10-08 11:23:00,86.5,71.0,29.65,SE,135,4.9,4.9,60,0.00,,---,0.05,VWS V14.01,2013-10-08 15:23:00,
2013-10-08 11:28:00,88.5,70.8,29.65,WSW,248,4.3,4.3,56,0.00,,---,0.05,VWS V14.01,2013-10-08 15:28:00,
2013-10-08 11:33:00,88.2,69.4,29.65,WSW,248,4.3,4.3,54,0.00,,---,0.05,VWS V14.01,2013-10-08 15:33:00,
2013-10-08 11:38:00,86.9,67.7,29.65,WSW,248,4.3,4.3,53,0.00,,---,0.05,VWS V14.01,2013-10-08 15:38:00,
2013-10-08 11:43:00,86.7,68.1,29.65,WSW,248,4.3,4.3,54,0.00,,---,0.05,VWS V14.01,2013-10-08 15:43:00,
2013-10-08 11:48:00,87.3,69.1,29.65,WSW,248,4.3,4.3,55,0.00,,---,0.05,VWS V14.01,2013-10-08 15:48:00,
2013-10-08 11:53:00,86.9,66.6,29.65,WSW,248,4.3,4.3,51,0.00,,---,0.05,VWS V14.01,2013-10-08 15:53:00,
2013-10-08 11:58:00,85.5,66.4,29.65,WSW,248,4.3,4.3,53,0.00,,---,0.05,VWS V14.01,2013-10-08 15:58:00,
2013-10-08 12:03:00,85.3,66.8,29.65,SW,225,3.4,3.4,54,0.00,,---,0.05,VWS V14.01,2013-10-08 16:03:00,
2013-10-08 12:08:00,87.1,69.0,29.65,SW,225,3.4,3.4,55,0.00,,---,0.05,VWS V14.01,2013-10-08 16:08:00,
2013-10-08 12:13:00,87.3,68.6,29.65,SW,225,3.4,3.4,54,0.00,,---,0.05,VWS V14.01,2013-10-08 16:13:00,
2013-10-08 12:18:00,87.6,67.3,29.65,SW,225,3.4,3.4,51,0.00,,---,0.05,VWS V14.01,2013-10-08 16:18:00,
2013-10-08 12:23:00,86.4,66.7,29.65,East,90,3.1,3.1,52,0.00,,---,0.05,VWS V14.01,2013-10-08 16:23:00,
2013-10-08 12:28:00,86.7,67.6,29.65,SW,225,2.7,2.7,53,0.00,,---,0.05,VWS V14.01,2013-10-08 16:28:00,
2013-10-08 12:33:00,87.4,67.1,29.65,SW,225,2.7,2.7,51,0.00,,---,0.05,VWS V14.01,2013-10-08 16:33:00,
2013-10-08 12:38:00,88.2,67.8,29.65,SW,225,2.7,2.7,51,0.00,,---,0.05,VWS V14.01,2013-10-08 16:38:00,
2013-10-08 12:43:00,88.7,67.1,29.65,West,270,3.1,3.1,49,0.00,,---,0.05,VWS V14.01,2013-10-08 16:43:00,
2013-10-08 12:48:00,87.4,66.5,29.65,WNW,292,2.9,2.9,50,0.00,,---,0.05,VWS V14.01,2013-10-08 16:48:00,
2013-10-08 12:53:00,86.9,65.5,29.65,WNW,292,2.9,2.9,49,0.00,,---,0.05,VWS V14.01,2013-10-08 16:53:00,
2013-10-08 12:58:00,87.1,65.0,29.65,WNW,292,2.9,2.9,48,0.00,,---,0.05,VWS V14.01,2013-10-08 16:58:00,
2013-10-08 13:03:00,88.3,66.2,29.65,WNW,292,2.9,2.9,48,0.00,,---,0.05,VWS V14.01,2013-10-08 17:03:00,
2013-10-08 13:08:00,89.2,66.4,29.62,NW,315,3.8,3.8,47,0.00,,---,0.05,VWS V14.01,2013-10-08 17:08:00,
2013-10-08 13:13:00,88.5,65.1,29.62,NW,315,3.8,3.8,46,0.00,,---,0.05,VWS V14.01,2013-10-08 17:13:00,
2013-10-08 13:18:00,89.1,65.6,29.62,SW,225,6.3,6.3,46,0.00,,---,0.05,VWS V14.01,2013-10-08 17:18:00,
2013-10-08 13:23:00,88.5,63.2,29.62,WNW,292,8.7,8.7,43,0.00,,---,0.05,VWS V14.01,2013-10-08 17:23:00,
2013-10-08 13:28:00,88.9,63.5,29.62,WNW,292,8.7,8.7,43,0.00,,---,0.05,VWS V14.01,2013-10-08 17:28:00,
2013-10-08 13:33:00,89.8,65.0,29.62,WNW,292,8.7,8.7,44,0.00,,---,0.05,VWS V14.01,2013-10-08 17:33:00,
2013-10-08 13:38:00,89.6,63.5,29.62,West,270,6.0,6.0,42,0.00,,---,0.05,VWS V14.01,2013-10-08 17:38:00,
2013-10-08 13:43:00,89.2,63.2,29.62,WNW,292,8.5,8.5,42,0.00,,---,0.05,VWS V14.01,2013-10-08 17:43:00,
2013-10-08 13:48:00,89.4,62.6,29.62,WNW,292,8.5,8.5,41,0.00,,---,0.05,VWS V14.01,2013-10-08 17:48:00,
2013-10-08 13:53:00,89.4,64.0,29.62,NNW,338,2.5,2.5,43,0.00,,---,0.05,VWS V14.01,2013-10-08 17:53:00,
2013-10-08 13:58:00,90.5,64.3,29.62,NW,315,7.6,7.6,42,0.00,,---,0.05,VWS V14.01,2013-10-08 17:58:00,
2013-10-08 14:03:00,90.3,64.1,29.62,West,270,6.0,6.0,42,0.00,,---,0.05,VWS V14.01,2013-10-08 18:03:00,
2013-10-08 14:08:00,89.2,62.5,29.59,West,270,6.3,6.3,41,0.00,,---,0.05,VWS V14.01,2013-10-08 18:08:00,
2013-10-08 14:13:00,89.2,63.2,29.59,West,270,5.4,5.4,42,0.00,,---,0.05,VWS V14.01,2013-10-08 18:13:00,
2013-10-08 14:18:00,90.7,64.5,29.59,West,270,5.4,5.4,42,0.00,,---,0.05,VWS V14.01,2013-10-08 18:18:00,
2013-10-08 14:23:00,91.2,64.2,29.62,WSW,248,3.8,3.8,41,0.00,,---,0.05,VWS V14.01,2013-10-08 18:23:00,
2013-10-08 14:28:00,90.5,63.6,29.62,WSW,248,3.8,3.8,41,0.00,,---,0.05,VWS V14.01,2013-10-08 18:28:00,
2013-10-08 14:33:00,90.7,63.8,29.62,WSW,248,3.6,3.6,41,0.00,,---,0.05,VWS V14.01,2013-10-08 18:33:00,
2013-10-08 14:38:00,89.1,63.0,29.59,WSW,248,7.4,7.4,42,0.00,,---,0.05,VWS V14.01,2013-10-08 18:38:00,
2013-10-08 14:43:00,90.7,64.5,29.59,WSW,248,7.4,7.4,42,0.00,,---,0.05,VWS V14.01,2013-10-08 18:43:00,
2013-10-08 14:48:00,90.3,63.5,29.59,NNW,338,7.4,7.4,41,0.00,,---,0.05,VWS V14.01,2013-10-08 18:48:00,
2013-10-08 14:53:00,90.0,63.1,29.59,SW,225,5.4,5.4,41,0.00,,---,0.05,VWS V14.01,2013-10-08 18:53:00,
2013-10-08 14:58:00,91.0,64.8,29.59,SW,225,5.4,5.4,42,0.00,,---,0.05,VWS V14.01,2013-10-08 18:58:00,
2013-10-08 15:03:00,91.0,64.1,29.59,WSW,248,11.9,11.9,41,0.00,,---,0.05,VWS V14.01,2013-10-08 19:03:00,
2013-10-08 15:08:00,91.0,63.4,29.59,SW,225,10.1,10.1,40,0.00,,---,0.05,VWS V14.01,2013-10-08 19:08:00,
2013-10-08 15:13:00,90.1,63.3,29.59,SW,225,10.1,10.1,41,0.00,,---,0.05,VWS V14.01,2013-10-08 19:13:00,
2013-10-08 15:18:00,91.8,63.3,29.59,SW,225,10.1,10.1,39,0.00,,---,0.05,VWS V14.01,2013-10-08 19:18:00,
2013-10-08 15:23:00,92.8,64.3,29.59,SW,225,6.9,6.9,39,0.00,,---,0.05,VWS V14.01,2013-10-08 19:23:00,
2013-10-08 15:28:00,91.9,64.2,29.59,SW,225,5.4,5.4,40,0.00,,---,0.05,VWS V14.01,2013-10-08 19:28:00,
2013-10-08 15:33:00,90.5,62.9,29.59,SW,225,5.4,5.4,40,0.00,,---,0.05,VWS V14.01,2013-10-08 19:33:00,
2013-10-08 15:38:00,88.0,62.0,29.59,SW,225,5.4,5.4,42,0.00,,---,0.05,VWS V14.01,2013-10-08 19:38:00,
2013-10-08 15:43:00,86.5,62.1,29.59,SW,225,5.4,5.4,44,0.00,,---,0.05,VWS V14.01,2013-10-08 19:43:00,
2013-10-08 15:48:00,86.4,62.5,29.59,WNW,292,2.5,2.5,45,0.00,,---,0.05,VWS V14.01,2013-10-08 19:48:00,
2013-10-08 15:53:00,86.4,63.2,29.59,WNW,292,2.5,2.5,46,0.00,,---,0.05,VWS V14.01,2013-10-08 19:53:00,
2013-10-08 15:58:00,86.2,63.6,29.59,WNW,292,2.5,2.5,47,0.00,,---,0.05,VWS V14.01,2013-10-08 19:58:00,
2013-10-08 16:03:00,86.0,63.4,29.59,WNW,292,2.5,2.5,47,0.00,,---,0.05,VWS V14.01,2013-10-08 20:03:00,
2013-10-08 16:08:00,87.1,64.4,29.59,WNW,292,2.5,2.5,47,0.00,,---,0.05,VWS V14.01,2013-10-08 20:08:00,
2013-10-08 16:13:00,87.1,63.2,29.59,WNW,292,2.5,2.5,45,0.00,,---,0.05,VWS V14.01,2013-10-08 20:13:00,
2013-10-08 16:18:00,86.4,62.5,29.59,WNW,292,2.5,2.5,45,0.00,,---,0.05,VWS V14.01,2013-10-08 20:18:00,
2013-10-08 16:23:00,85.3,62.8,29.59,WNW,292,2.5,2.5,47,0.00,,---,0.05,VWS V14.01,2013-10-08 20:23:00,
2013-10-08 16:28:00,84.9,62.5,29.59,WNW,292,2.5,2.5,47,0.00,,---,0.05,VWS V14.01,2013-10-08 20:28:00,
2013-10-08 16:34:00,84.6,62.7,29.59,WNW,292,2.5,2.5,48,0.00,,---,0.05,VWS V14.01,2013-10-08 20:34:00,
2013-10-08 16:39:00,84.6,63.3,29.59,WNW,292,2.5,2.5,49,0.00,,---,0.05,VWS V14.01,2013-10-08 20:39:00,
2013-10-08 16:44:00,84.0,63.4,29.59,WNW,292,2.5,2.5,50,0.00,,---,0.05,VWS V14.01,2013-10-08 20:44:00,
2013-10-08 16:49:00,84.7,64.1,29.59,WNW,292,2.5,2.5,50,0.00,,---,0.05,VWS V14.01,2013-10-08 20:49:00,
2013-10-08 16:54:00,84.7,64.1,29.62,WNW,292,2.5,2.5,50,0.00,,---,0.05,VWS V14.01,2013-10-08 20:54:00,
2013-10-08 16:59:00,84.6,64.5,29.62,WNW,292,2.5,2.5,51,0.00,,---,0.05,VWS V14.01,2013-10-08 20:59:00,
2013-10-08 17:04:00,84.4,64.3,29.62,WNW,292,2.5,2.5,51,0.00,,---,0.05,VWS V14.01,2013-10-08 21:04:00,
2013-10-08 17:09:00,84.2,64.7,29.62,WNW,292,2.5,2.5,52,0.00,,---,0.05,VWS V14.01,2013-10-08 21:09:00,
2013-10-08 17:14:00,82.9,63.0,29.62,WNW,292,2.5,2.5,51,0.00,,---,0.05,VWS V14.01,2013-10-08 21:14:00,
2013-10-08 17:19:00,82.6,63.7,29.62,WNW,292,2.5,2.5,53,0.00,,---,0.05,VWS V14.01,2013-10-08 21:19:00,
2013-10-08 17:24:00,82.0,63.8,29.62,WNW,292,2.5,2.5,54,0.00,,---,0.05,VWS V14.01,2013-10-08 21:24:00,
2013-10-08 17:29:00,81.9,64.1,29.62,WNW,292,2.5,2.5,55,0.00,,---,0.05,VWS V14.01,2013-10-08 21:29:00,
2013-10-08 17:34:00,81.5,64.3,29.62,WNW,292,2.5,2.5,56,0.00,,---,0.05,VWS V14.01,2013-10-08 21:34:00,
2013-10-08 17:39:00,81.1,65.0,29.62,WNW,292,2.5,2.5,58,0.00,,---,0.05,VWS V14.01,2013-10-08 21:39:00,
2013-10-08 17:44:00,80.8,65.1,29.62,WNW,292,2.5,2.5,59,0.00,,---,0.05,VWS V14.01,2013-10-08 21:44:00,
2013-10-08 17:49:00,79.9,64.8,29.62,WNW,292,2.5,2.5,60,0.00,,---,0.05,VWS V14.01,2013-10-08 21:49:00,
2013-10-08 17:54:00,79.2,65.0,29.62,WNW,292,2.5,2.5,62,0.00,,---,0.05,VWS V14.01,2013-10-08 21:54:00,
2013-10-08 17:59:00,79.3,64.7,29.62,WNW,292,2.5,2.5,61,0.00,,---,0.05,VWS V14.01,2013-10-08 21:59:00,
2013-10-08 18:04:00,79.2,63.6,29.62,WNW,292,2.5,2.5,59,0.00,,---,0.05,VWS V14.01,2013-10-08 22:04:00,
2013-10-08 18:09:00,79.0,63.9,29.65,WNW,292,2.5,2.5,60,0.00,,---,0.05,VWS V14.01,2013-10-08 22:09:00,
2013-10-08 18:14:00,78.6,63.6,29.65,WNW,292,2.5,2.5,60,0.00,,---,0.05,VWS V14.01,2013-10-08 22:14:00,
2013-10-08 18:19:00,78.4,63.9,29.65,WNW,292,2.5,2.5,61,0.00,,---,0.05,VWS V14.01,2013-10-08 22:19:00,
2013-10-08 18:24:00,77.9,64.3,29.65,WNW,292,2.5,2.5,63,0.00,,---,0.05,VWS V14.01,2013-10-08 22:24:00,
2013-10-08 18:29:00,77.4,63.8,29.65,WNW,292,2.5,2.5,63,0.00,,---,0.05,VWS V14.01,2013-10-08 22:29:00,
2013-10-08 18:34:00,77.2,64.1,29.65,WNW,292,2.5,2.5,64,0.00,,---,0.05,VWS V14.01,2013-10-08 22:34:00,
2013-10-08 18:39:00,76.8,64.2,29.62,WNW,292,2.5,2.5,65,0.00,,---,0.05,VWS V14.01,2013-10-08 22:39:00,
2013-10-08 18:44:00,76.5,64.3,29.62,WNW,292,2.5,2.5,66,0.00,,---,0.05,VWS V14.01,2013-10-08 22:44:00,
2013-10-08 18:49:00,76.3,64.5,29.62,WNW,292,2.5,2.5,67,0.00,,---,0.05,VWS V14.01,2013-10-08 22:49:00,
2013-10-08 18:54:00,76.1,65.2,29.62,WNW,292,2.5,2.5,69,0.00,,---,0.05,VWS V14.01,2013-10-08 22:54:00,
2013-10-08 18:59:00,75.9,65.4,29.62,WNW,292,2.5,2.5,70,0.00,,---,0.05,VWS V14.01,2013-10-08 22:59:00,
2013-10-08 19:04:00,75.7,66.1,29.62,WNW,292,2.5,2.5,72,0.00,,---,0.05,VWS V14.01,2013-10-08 23:04:00,
2013-10-08 19:09:00,75.4,65.3,29.65,WNW,292,2.5,2.5,71,0.00,,---,0.05,VWS V14.01,2013-10-08 23:09:00,
2013-10-08 19:14:00,75.4,66.1,29.65,WNW,292,2.5,2.5,73,0.00,,---,0.05,VWS V14.01,2013-10-08 23:14:00,
2013-10-08 19:19:00,75.2,66.0,29.65,WNW,292,2.5,2.5,73,0.00,,---,0.05,VWS V14.01,2013-10-08 23:19:00,
2013-10-08 19:24:00,75.2,66.7,29.62,WNW,292,2.5,2.5,75,0.00,,---,0.05,VWS V14.01,2013-10-08 23:24:00,
2013-10-08 19:29:00,75.2,66.7,29.62,WNW,292,2.5,2.5,75,0.00,,---,0.05,VWS V14.01,2013-10-08 23:29:00,
2013-10-08 19:34:00,75.2,66.7,29.62,WNW,292,2.5,2.5,75,0.00,,---,0.05,VWS V14.01,2013-10-08 23:34:00,
2013-10-08 19:39:00,75.2,67.1,29.65,WNW,292,2.5,2.5,76,0.00,,---,0.05,VWS V14.01,2013-10-08 23:39:00,
2013-10-08 19:44:00,75.2,67.1,29.65,WNW,292,2.5,2.5,76,0.00,,---,0.05,VWS V14.01,2013-10-08 23:44:00,
2013-10-08 19:49:00,75.2,67.1,29.65,WNW,292,2.5,2.5,76,0.00,,---,0.05,VWS V14.01,2013-10-08 23:49:00,
2013-10-08 19:54:00,75.2,67.1,29.65,WNW,292,2.5,2.5,76,0.00,,---,0.05,VWS V14.01,2013-10-08 23:54:00,
2013-10-08 19:59:00,75.2,67.1,29.65,WNW,292,2.5,2.5,76,0.00,,---,0.05,VWS V14.01,2013-10-08 23:59:00,
2013-10-08 20:04:00,75.2,67.1,29.65,WNW,292,2.5,2.5,76,0.00,,---,0.05,VWS V14.01,2013-10-09 00:04:00,
2013-10-08 20:09:00,75.2,67.1,29.65,WNW,292,2.5,2.5,76,0.00,,---,0.05,VWS V14.01,2013-10-09 00:09:00,
2013-10-08 20:14:00,75.2,67.1,29.65,WNW,292,2.5,2.5,76,0.00,,---,0.05,VWS V14.01,2013-10-09 00:14:00,
2013-10-08 20:19:00,75.2,67.1,29.65,WNW,292,2.5,2.5,76,0.00,,---,0.05,VWS V14.01,2013-10-09 00:19:00,
2013-10-08 20:24:00,75.2,67.1,29.65,WNW,292,2.5,2.5,76,0.00,,---,0.05,VWS V14.01,2013-10-09 00:24:00,
2013-10-08 20:29:00,75.2,67.1,29.65,WNW,292,2.5,2.5,76,0.00,,---,0.05,VWS V14.01,2013-10-09 00:29:00,
2013-10-08 20:34:00,75.0,66.9,29.65,WNW,292,2.5,2.5,76,0.00,,---,0.05,VWS V14.01,2013-10-09 00:34:00,
2013-10-08 20:39:00,75.2,67.1,29.68,WNW,292,2.5,2.5,76,0.00,,---,0.05,VWS V14.01,2013-10-09 00:39:00,
2013-10-08 20:44:00,75.2,67.1,29.68,WNW,292,2.5,2.5,76,0.00,,---,0.05,VWS V14.01,2013-10-09 00:44:00,
2013-10-08 20:49:00,75.0,66.9,29.68,WNW,292,2.5,2.5,76,0.00,,---,0.05,VWS V14.01,2013-10-09 00:49:00,
2013-10-08 20:54:00,75.2,67.1,29.68,WNW,292,2.5,2.5,76,0.00,,---,0.05,VWS V14.01,2013-10-09 00:54:00,
2013-10-08 20:59:00,75.0,66.9,29.68,WNW,292,2.5,2.5,76,0.00,,---,0.05,VWS V14.01,2013-10-09 00:59:00,
2013-10-08 21:04:00,75.0,66.9,29.68,WNW,292,2.5,2.5,76,0.00,,---,0.05,VWS V14.01,2013-10-09 01:04:00,
2013-10-08 21:09:00,75.0,66.9,29.68,WNW,292,2.5,2.5,76,0.00,,---,0.05,VWS V14.01,2013-10-09 01:09:00,
2013-10-08 21:14:00,75.0,66.9,29.68,WNW,292,2.5,2.5,76,0.00,,---,0.05,VWS V14.01,2013-10-09 01:14:00,
2013-10-08 21:19:00,75.0,66.9,29.68,WNW,292,2.5,2.5,76,0.00,,---,0.05,VWS V14.01,2013-10-09 01:19:00,
2013-10-08 21:24:00,75.0,66.9,29.71,WNW,292,2.5,2.5,76,0.00,,---,0.05,VWS V14.01,2013-10-09 01:24:00,
2013-10-08 21:29:00,74.8,66.8,29.71,WNW,292,2.5,2.5,76,0.00,,---,0.05,VWS V14.01,2013-10-09 01:29:00,
2013-10-08 21:34:00,74.8,66.8,29.71,West,270,7.6,8.1,76,0.00,,---,0.05,VWS V14.01,2013-10-09 01:34:00,
2013-10-08 21:39:00,74.8,66.8,29.68,NW,315,2.7,4.3,76,0.00,,---,0.05,VWS V14.01,2013-10-09 01:39:00,
2013-10-08 21:44:00,74.8,66.8,29.68,NW,315,2.9,2.9,76,0.00,,---,0.05,VWS V14.01,2013-10-09 01:44:00,
2013-10-08 21:49:00,74.7,66.6,29.68,NW,315,6.5,8.5,76,0.00,,---,0.05,VWS V14.01,2013-10-09 01:49:00,
2013-10-08 21:54:00,74.7,66.6,29.68,NNW,338,7.4,9.0,76,0.00,,---,0.05,VWS V14.01,2013-10-09 01:54:00,
2013-10-08 21:59:00,74.7,66.6,29.68,SW,225,4.9,8.1,76,0.00,,---,0.05,VWS V14.01,2013-10-09 01:59:00,
2013-10-08 22:04:00,74.7,66.6,29.68,WSW,248,2.2,4.3,76,0.00,,---,0.05,VWS V14.01,2013-10-09 02:04:00,
2013-10-08 22:09:00,74.5,66.4,29.71,WNW,292,4.7,6.0,76,0.00,,---,0.05,VWS V14.01,2013-10-09 02:09:00,
2013-10-08 22:14:00,74.5,66.4,29.71,NW,315,4.0,4.0,76,0.00,,---,0.05,VWS V14.01,2013-10-09 02:14:00,
2013-10-08 22:19:00,74.5,66.4,29.71,North,0,5.8,5.8,76,0.00,,---,0.05,VWS V14.01,2013-10-09 02:19:00,
2013-10-08 22:24:00,74.5,66.4,29.71,NW,315,2.5,2.9,76,0.00,,---,0.05,VWS V14.01,2013-10-09 02:24:00,
2013-10-08 22:29:00,74.5,66.4,29.71,WNW,292,6.3,6.3,76,0.00,,---,0.05,VWS V14.01,2013-10-09 02:29:00,
2013-10-08 22:34:00,74.3,66.2,29.71,NW,315,4.9,6.3,76,0.00,,---,0.05,VWS V14.01,2013-10-09 02:34:00,
2013-10-08 22:39:00,74.3,66.2,29.71,NW,315,3.6,5.8,76,0.00,,---,0.05,VWS V14.01,2013-10-09 02:39:00,
2013-10-08 22:45:00,74.3,66.2,29.71,NW,315,4.3,5.6,76,0.00,,---,0.05,VWS V14.01,2013-10-09 02:45:00,
2013-10-08 22:50:00,74.3,66.2,29.71,NW,315,7.6,9.4,76,0.00,,---,0.05,VWS V14.01,2013-10-09 02:50:00,
2013-10-08 22:55:00,74.3,66.2,29.71,WNW,292,7.8,7.8,76,0.00,,---,0.05,VWS V14.01,2013-10-09 02:55:00,
2013-10-08 23:00:00,74.1,66.1,29.71,North,0,3.4,3.4,76,0.00,,---,0.05,VWS V14.01,2013-10-09 03:00:00,
2013-10-08 23:05:00,74.1,66.5,29.71,NW,315,5.6,6.5,77,0.00,,---,0.05,VWS V14.01,2013-10-09 03:05:00,
2013-10-08 23:10:00,74.1,66.5,29.71,WNW,292,4.9,6.7,77,0.00,,---,0.05,VWS V14.01,2013-10-09 03:10:00,
2013-10-08 23:15:00,74.1,66.5,29.71,NW,315,2.2,3.4,77,0.00,,---,0.05,VWS V14.01,2013-10-09 03:15:00,
2013-10-08 23:20:00,73.9,66.3,29.71,NW,315,2.7,2.7,77,0.00,,---,0.05,VWS V14.01,2013-10-09 03:20:00,
2013-10-08 23:25:00,73.9,66.3,29.71,NW,315,5.4,5.4,77,0.00,,---,0.05,VWS V14.01,2013-10-09 03:25:00,
2013-10-08 23:30:00,73.9,66.3,29.71,WNW,292,4.3,6.3,77,0.00,,---,0.05,VWS V14.01,2013-10-09 03:30:00,
2013-10-08 23:35:00,73.9,66.3,29.71,North,0,2.7,6.0,77,0.00,,---,0.05,VWS V14.01,2013-10-09 03:35:00,
2013-10-08 23:40:00,73.9,66.3,29.74,NW,315,4.3,7.4,77,0.00,,---,0.05,VWS V14.01,2013-10-09 03:40:00,
2013-10-08 23:45:00,73.8,66.1,29.74,NW,315,7.6,8.7,77,0.00,,---,0.05,VWS V14.01,2013-10-09 03:45:00,
2013-10-08 23:50:00,73.8,66.1,29.74,NW,315,5.8,6.0,77,0.00,,---,0.05,VWS V14.01,2013-10-09 03:50:00,
2013-10-08 23:55:00,73.8,66.1,29.74,NNW,338,6.5,6.5,77,0.00,,---,0.05,VWS V14.01,2013-10-09 03:55:00,